ARIANE 5 DEB (SYLDA), 41947

Orbit data source: Space-Track

ARIANE 5 DEB (SYLDA), 41947 is space debris in HEO originally from a launch on Tue, 14 Feb 2017 UTC launched from the French Guiana (FRGUI). Debris objects in space refer to the collection of defunct objects orbiting the Earth. Examples of debris include non-operational satellites, rocket bodies, and fragments generated from explosions, collisions, or faulty payload assembly.

Loading next visibility...
Identifier
41947, 2017-007D
Orbit
HEO
Country
Flag of FRFR
Related business
Manufacturer
ADS/Bremen
Mission
Spacecraft
Bus & Motor
SYLDA 5, Unknown motor
Mass
440 kg wet, 440 kg dry
Launch date (UTC)
2017-02-14 (9 years ago)
Launch vehicle
Unknown
Launch site
French Guiana (FRGUI)
Object type
Payload
Rocket body
Debris
Shape & HBR
Cyl, 2.8 m
Radar Cross Section
27.391 m², Large (>1 m²)

Expand to show TLE details & history
Last TLE update: 20 hours ago

TLE from 20 hours ago
0 ARIANE 5 DEB (SYLDA)
1 41947U 17007D   25293.71891664  .00214496  00000-0  75155-2 0  9994
2 41947   3.9293 118.8871 5041928 147.3130 257.7223  5.65103509 98183
Epoch: 2025-10-20T17:15Z
TLE epoch observation values (Epoch: 2025-10-20T17:15:14.397Z)
Latitude
-0.00007°
Longitude
-169.237°
Altitude
10,847.181 km
Speed
4.043 km/s
True Right ascension
07h 55m 57s
True Declination
0° 00' 00"
Sunlit
Object was in daylight at epoch
Visualization orbit readout
Latitude
Unknown
Longitude
Unknown
Altitude
Unknown
Speed
Unknown
Apparent Right ascension
Unknown
Apparent Declination
Unknown
Sunlit
N/A
Visualization observer readout
Local Sidereal Time
08:01:07
Azimuth
Unknown
Elevation
Unknown
Doppler factor
Unknown
Orbital elements
Apogee altitude
13,656.738 km
Perigee altitude
225.694 km
Semi-major axis
13,319.353 km
Eccentricity
0.50419
Inclination
3.9293°
RAAN
118.8871°
Arg. of periapsis
147.313°
True anomaly
212.79238°
Mean anomaly
257.7223°
Eccentric anomaly
234.27121°
Mean motion
1.41195 °/min
Orbital period
254.97 mins
BSTAR
0.0075155
Loading maneuver chart data...
Computing Atmospheric mass density...
Loading historical data...
Loading historical data...
Loading historical data...
Loading historical data...
Loading historical data...
Loading historical data...
Loading historical data...
Other satellites on launch #7 in the year 2017 (2017-02-14 UTC)

Documentation

Showing up to 5 results
|